This demonstration page uses our WeatherBlox Daily Observations layout. Learn more.

Left ArrowRight Arrow

Hourly Observations for October 22, 2021

Temp ( °F °C ) Dew Point ( °F °C ) Humidity (%) Winds ( mph kmh ) Pressure ( in mb ) Visibility ( mi km ) Precip ( " mm )
12:56 am 00:56 Clear 41 5 33 0.6 73 73 SW 3 6 30.17 1022 10 16 N/A
1:56 am 01:56 Clear 36 2.2 30 -1.1 79 79 N N/A 30.16 1021 10 16 N/A
2:56 am 02:56 Clear 34 1.1 30 -1.1 85 85 N N/A 30.15 1021 10 16 N/A
3:56 am 03:56 Clear 32 undefined 29 -1.7 88 88 N N/A 30.13 1020 10 16 N/A
4:56 am 04:56 Clear 32 undefined 30 -1.1 92 92 S 5 7 30.11 1020 10 16 N/A
5:56 am 05:56 Clear 33 0.6 30 -1.1 89 89 S 7 11 30.10 1019 10 16 N/A
6:56 am 06:56 Clear 33 0.6 31 -0.6 92 92 S 9 15 30.09 1019 10 16 N/A
7:56 am 07:56 Sunny 35 1.7 33 0.6 93 93 N N/A 30.08 1019 10 16 N/A
8:56 am 08:56 Sunny 40 4.4 38 3.3 93 93 SSW 9 15 30.06 1018 10 16 N/A
9:56 am 09:56 Sunny 47 8.3 39 3.9 74 74 SW 13 20 30.04 1017 10 16 N/A
10:56 am 10:56 Sunny 53 11.7 41 5 64 64 SW 12 19 30.03 1017 10 16 N/A
11:56 am 11:56 Sunny 58 14.4 41 5 53 53 SSW 14 22 29.99 1016 10 16 N/A
12:56 pm 12:56 Sunny 64 17.8 41 5 43 43 SW 7 11 29.96 1015 10 16 N/A
1:56 pm 13:56 Sunny 70 21.1 37 2.8 30 30 W 10 17 29.93 1014 10 16 N/A
2:56 pm 14:56 Sunny 71 21.7 36 2.2 28 28 VRB 3 6 29.91 1013 10 16 N/A
3:56 pm 15:56 Sunny 73 22.8 37 2.8 27 27 NW 3 6 29.89 1012 10 16 N/A
4:56 pm 16:56 Sunny 72 22.2 38 3.3 29 29 NNW 3 6 29.89 1012 10 16 N/A
5:56 pm 17:56 Sunny 71 21.7 40 4.4 32 32 ENE 3 6 29.89 1012 10 16 N/A
6:56 pm 18:56 Clear 60 15.6 41 5 50 50 NNE 12 19 29.91 1013 10 16 N/A
7:56 pm 19:56 Clear 56 13.3 42 5.6 60 60 NE 14 22 29.93 1014 10 16 N/A
8:56 pm 20:56 Clear 52 11.1 42 5.6 69 69 ENE 16 26 29.93 1014 10 16 N/A
9:56 pm 21:56 Clear 49 9.4 40 4.4 71 71 E 14 22 29.94 1014 10 16 N/A
10:56 pm 22:56 Clear 46 7.8 38 3.3 73 73 ENE 12 19 29.94 1014 10 16 N/A
11:56 pm 23:56 Clear 43 6.1 37 2.8 80 80 ENE 10 17 29.93 1013 10 16 N/A

Powered by AerisWeather